WMT5ZU LIRF-LATI

Flight info

Callsign WMT5ZU
Flight time 0h 57m
Altitude 34000
Route XIBRI5AXOKUNO5R/25 OKUNO DCT ATRUP DCT XOLTA/N0449F350 DCT TIBRI DCT PETAK
Aircraft A321/M-SDE3FGHIRWY/LB1

Departure

Time 2026-05-08 15:40
Airport Rome–Fiumicino Leonardo da Vinci International Airport (LIRF)

Arrival

Time 2026-05-08 16:38
Airport Tirana International Airport Mother Teresa (LATI)
Time Latitude Longitude Altitude Speed Heading
2026-05-08 15:03 41.79380 12.24552 14 ft 0 kts 346°
2026-05-08 15:23 41.79367 12.24557 16 ft 4 kts 346°
2026-05-08 15:23 41.79346 12.24564 14 ft 4 kts 339°
2026-05-08 15:23 41.79324 12.24581 18 ft 4 kts 306°
2026-05-08 15:24 41.79316 12.24610 15 ft 3 kts 261°
2026-05-08 15:24 41.79316 12.24615 15 ft 0 kts 258°
2026-05-08 15:27 41.79316 12.24614 15 ft 1 kts 258°
2026-05-08 15:28 41.79310 12.24571 16 ft 7 kts 258°
2026-05-08 15:28 41.79300 12.24508 14 ft 9 kts 258°
2026-05-08 15:28 41.79311 12.24418 15 ft 11 kts 302°
2026-05-08 15:28 41.79348 12.24328 14 ft 11 kts 277°
2026-05-08 15:29 41.79323 12.24222 14 ft 13 kts 250°
2026-05-08 15:29 41.79288 12.24098 14 ft 15 kts 249°
2026-05-08 15:29 41.79256 12.23982 15 ft 10 kts 251°
2026-05-08 15:29 41.79283 12.23916 15 ft 9 kts 341°
2026-05-08 15:30 41.79359 12.23884 15 ft 14 kts 342°
2026-05-08 15:30 41.79472 12.23836 15 ft 19 kts 342°
2026-05-08 15:30 41.79604 12.23780 14 ft 20 kts 342°
2026-05-08 15:30 41.79741 12.23724 14 ft 21 kts 342°
2026-05-08 15:31 41.79865 12.23673 14 ft 14 kts 346°
2026-05-08 15:31 41.79912 12.23736 16 ft 11 kts 69°
2026-05-08 15:31 41.79945 12.23854 13 ft 16 kts 70°
2026-05-08 15:31 41.79984 12.23999 14 ft 13 kts 74°
2026-05-08 15:32 41.80000 12.24123 14 ft 14 kts 69°
2026-05-08 15:32 41.80040 12.24267 13 ft 19 kts 69°
2026-05-08 15:32 41.80093 12.24460 13 ft 24 kts 70°
2026-05-08 15:32 41.80156 12.24687 14 ft 26 kts 70°
2026-05-08 15:33 41.80204 12.24881 15 ft 21 kts 81°
2026-05-08 15:33 41.80210 12.25075 14 ft 21 kts 77°
2026-05-08 15:33 41.80258 12.25260 15 ft 21 kts 69°
2026-05-08 15:33 41.80309 12.25445 17 ft 21 kts 70°
2026-05-08 15:34 41.80360 12.25629 17 ft 21 kts 70°
2026-05-08 15:34 41.80412 12.25820 15 ft 23 kts 70°
2026-05-08 15:34 41.80470 12.26027 15 ft 24 kts 70°
2026-05-08 15:34 41.80529 12.26238 16 ft 24 kts 69°
2026-05-08 15:35 41.80587 12.26451 16 ft 25 kts 70°
2026-05-08 15:35 41.80647 12.26669 15 ft 25 kts 69°
2026-05-08 15:35 41.80708 12.26889 14 ft 23 kts 70°
2026-05-08 15:35 41.80754 12.27027 13 ft 13 kts 45°
2026-05-08 15:36 41.80833 12.27029 14 ft 11 kts 340°
2026-05-08 15:36 41.80866 12.27013 13 ft 0 kts 340°
2026-05-08 15:38 41.80867 12.27013 13 ft 1 kts 340°
2026-05-08 15:39 41.80899 12.26997 13 ft 8 kts 340°
2026-05-08 15:39 41.80958 12.26968 14 ft 7 kts 333°
2026-05-08 15:39 41.80952 12.26903 13 ft 12 kts 250°
2026-05-08 15:39 41.80851 12.26541 17 ft 77 kts 250°
2026-05-08 15:40 41.80588 12.25586 17 ft 139 kts 250°
2026-05-08 15:40 41.80201 12.24167 153 ft 173 kts 249°
2026-05-08 15:40 41.79803 12.22696 937 ft 168 kts 249°
2026-05-08 15:40 41.79339 12.21258 1801 ft 168 kts 238°
2026-05-08 15:41 41.78523 12.20110 2533 ft 175 kts 222°
2026-05-08 15:41 41.77582 12.19060 3108 ft 177 kts 220°
2026-05-08 15:41 41.76598 12.18042 3553 ft 183 kts 209°
2026-05-08 15:41 41.75297 12.17675 3696 ft 206 kts 169°
2026-05-08 15:42 41.73996 12.18579 3912 ft 222 kts 128°
2026-05-08 15:42 41.73431 12.20532 4152 ft 240 kts 88°
2026-05-08 15:42 41.73883 12.22751 4435 ft 258 kts 62°
2026-05-08 15:42 41.74836 12.24839 5033 ft 266 kts 54°
2026-05-08 15:43 41.75909 12.26885 5749 ft 270 kts 54°
2026-05-08 15:43 41.76971 12.28974 6513 ft 274 kts 55°
2026-05-08 15:43 41.78036 12.31105 7218 ft 276 kts 56°
2026-05-08 15:43 41.79110 12.33263 7915 ft 280 kts 56°
2026-05-08 15:44 41.80194 12.35443 8624 ft 283 kts 56°
2026-05-08 15:44 41.81275 12.37622 9327 ft 286 kts 56°
2026-05-08 15:44 41.82381 12.39850 10013 ft 289 kts 56°
2026-05-08 15:44 41.83522 12.42147 10327 ft 306 kts 56°
2026-05-08 15:45 41.84748 12.44612 10468 ft 329 kts 56°
2026-05-08 15:45 41.86074 12.47279 10590 ft 350 kts 56°
2026-05-08 15:45 41.87427 12.49999 10952 ft 360 kts 56°
2026-05-08 15:45 41.88827 12.52817 11495 ft 365 kts 56°
2026-05-08 15:46 41.90245 12.55675 12037 ft 371 kts 56°
2026-05-08 15:46 41.91683 12.58579 12635 ft 375 kts 56°
2026-05-08 15:46 41.93134 12.61517 13225 ft 380 kts 56°
2026-05-08 15:46 41.94600 12.64479 13811 ft 384 kts 56°
2026-05-08 15:47 41.96090 12.67487 14319 ft 388 kts 56°
2026-05-08 15:47 41.97593 12.70527 14820 ft 392 kts 56°
2026-05-08 15:47 41.99100 12.73577 15333 ft 396 kts 56°
2026-05-08 15:47 42.00625 12.76665 15853 ft 401 kts 56°
2026-05-08 15:48 42.03730 12.82975 16915 ft 408 kts 56°
2026-05-08 15:48 42.05302 12.86178 17443 ft 412 kts 56°
2026-05-08 15:48 42.06889 12.89415 17938 ft 416 kts 56°
2026-05-08 15:49 42.08490 12.92683 18444 ft 420 kts 56°
2026-05-08 15:49 42.10103 12.95977 18896 ft 423 kts 56°
2026-05-08 15:49 42.11587 12.99417 19348 ft 427 kts 61°
2026-05-08 15:49 42.12979 13.02972 19800 ft 430 kts 61°
2026-05-08 15:50 42.14377 13.06553 20230 ft 434 kts 61°
2026-05-08 15:50 42.15786 13.10164 20676 ft 436 kts 61°
2026-05-08 15:50 42.17201 13.13797 21097 ft 440 kts 61°
2026-05-08 15:50 42.18626 13.17456 21526 ft 442 kts 61°
2026-05-08 15:51 42.20062 13.21146 21928 ft 445 kts 61°
2026-05-08 15:51 42.21501 13.24857 22358 ft 448 kts 62°
2026-05-08 15:51 42.22948 13.28589 22775 ft 451 kts 62°
2026-05-08 15:51 42.24407 13.32352 23167 ft 453 kts 62°
2026-05-08 15:52 42.25872 13.36133 23561 ft 456 kts 62°
2026-05-08 15:52 42.27344 13.39939 23896 ft 459 kts 62°
2026-05-08 15:52 42.28824 13.43773 24208 ft 461 kts 62°
2026-05-08 15:52 42.30310 13.47628 24510 ft 464 kts 61°
2026-05-08 15:53 42.31801 13.51505 24806 ft 467 kts 61°
2026-05-08 15:53 42.33303 13.55417 25128 ft 470 kts 61°
2026-05-08 15:53 42.34682 13.59440 25430 ft 474 kts 68°
2026-05-08 15:53 42.35631 13.63728 25723 ft 479 kts 76°
2026-05-08 15:54 42.36389 13.68131 25997 ft 482 kts 76°
2026-05-08 15:54 42.37155 13.72558 26270 ft 485 kts 75°
2026-05-08 15:54 42.37930 13.77021 26529 ft 488 kts 75°
2026-05-08 15:54 42.38704 13.81466 26805 ft 491 kts 75°
2026-05-08 15:55 42.39493 13.85997 27052 ft 494 kts 75°
2026-05-08 15:55 42.41070 13.95104 27570 ft 499 kts 75°
2026-05-08 15:55 42.41856 13.99695 27854 ft 502 kts 75°
2026-05-08 15:56 42.42633 14.04255 28135 ft 505 kts 75°
2026-05-08 15:56 42.43424 14.08907 28431 ft 507 kts 75°
2026-05-08 15:56 42.44217 14.13571 28689 ft 510 kts 75°
2026-05-08 15:56 42.45011 14.18250 29064 ft 509 kts 75°
2026-05-08 15:57 42.45807 14.22928 29461 ft 509 kts 75°
2026-05-08 15:57 42.46599 14.27594 29846 ft 509 kts 75°
2026-05-08 15:57 42.47388 14.32256 30206 ft 508 kts 75°
2026-05-08 15:57 42.48176 14.36929 30532 ft 508 kts 75°
2026-05-08 15:58 42.48956 14.41583 30873 ft 507 kts 75°
2026-05-08 15:58 42.49731 14.46232 31216 ft 506 kts 75°
2026-05-08 15:58 42.50504 14.50880 31553 ft 505 kts 75°
2026-05-08 15:58 42.51273 14.55519 31885 ft 504 kts 75°
2026-05-08 15:59 42.52038 14.60149 32232 ft 503 kts 75°
2026-05-08 15:59 42.52800 14.64772 32572 ft 502 kts 75°
2026-05-08 15:59 42.53560 14.69389 32898 ft 501 kts 75°
2026-05-08 15:59 42.54317 14.73995 33226 ft 500 kts 75°
2026-05-08 16:00 42.55074 14.78604 33556 ft 500 kts 75°
2026-05-08 16:00 42.55830 14.83200 33882 ft 499 kts 75°
2026-05-08 16:00 42.56581 14.87790 34019 ft 498 kts 75°
2026-05-08 16:00 42.57326 14.92376 34037 ft 496 kts 75°
2026-05-08 16:01 42.58800 15.01509 34038 ft 494 kts 76°
2026-05-08 16:01 42.60261 15.10593 34041 ft 491 kts 76°
2026-05-08 16:02 42.61717 15.19635 34040 ft 489 kts 76°
2026-05-08 16:02 42.63158 15.28667 34040 ft 488 kts 77°
2026-05-08 16:03 42.64585 15.37665 34051 ft 487 kts 77°
2026-05-08 16:03 42.65991 15.46603 34058 ft 486 kts 77°
2026-05-08 16:04 42.67393 15.55571 34062 ft 484 kts 78°
2026-05-08 16:04 42.68793 15.64496 34036 ft 480 kts 78°
2026-05-08 16:05 42.70011 15.73392 34037 ft 477 kts 86°
2026-05-08 16:05 42.69690 15.82358 34039 ft 475 kts 98°
2026-05-08 16:06 42.68853 15.91248 34031 ft 474 kts 98°
2026-05-08 16:06 42.68040 16.00090 34035 ft 474 kts 98°
2026-05-08 16:07 42.67206 16.09037 34039 ft 474 kts 98°
2026-05-08 16:07 42.66362 16.17863 34106 ft 474 kts 99°
2026-05-08 16:08 42.65933 16.22303 34340 ft 475 kts 98°
2026-05-08 16:08 42.65500 16.26749 34573 ft 475 kts 99°
2026-05-08 16:08 42.65066 16.31203 34810 ft 476 kts 99°
2026-05-08 16:08 42.64630 16.35666 34974 ft 478 kts 98°
2026-05-08 16:09 42.63898 16.43177 35028 ft 479 kts 98°
2026-05-08 16:09 42.63029 16.52102 35024 ft 479 kts 99°
2026-05-08 16:10 42.62132 16.61128 35023 ft 479 kts 99°
2026-05-08 16:10 42.61235 16.70038 35015 ft 480 kts 99°
2026-05-08 16:11 42.60328 16.79027 35017 ft 480 kts 99°
2026-05-08 16:11 42.59418 16.88012 35019 ft 481 kts 99°
2026-05-08 16:12 42.58496 16.97015 35022 ft 481 kts 99°
2026-05-08 16:12 42.57562 17.06014 35027 ft 482 kts 99°
2026-05-08 16:13 42.56620 17.15008 35030 ft 482 kts 99°
2026-05-08 16:13 42.55678 17.24013 35033 ft 482 kts 99°
2026-05-08 16:14 42.54734 17.33011 35034 ft 482 kts 99°
2026-05-08 16:14 42.53778 17.42007 35034 ft 481 kts 99°
2026-05-08 16:15 42.52806 17.50987 35034 ft 481 kts 100°
2026-05-08 16:15 42.51842 17.59901 35033 ft 481 kts 100°
2026-05-08 16:16 42.50868 17.68871 35033 ft 481 kts 100°
2026-05-08 16:16 42.49892 17.77844 35031 ft 480 kts 100°
2026-05-08 16:17 42.48903 17.86790 35030 ft 480 kts 100°
2026-05-08 16:17 42.47897 17.95720 35028 ft 479 kts 100°
2026-05-08 16:18 42.46893 18.04643 34965 ft 477 kts 101°
2026-05-08 16:18 42.46391 18.09086 34455 ft 476 kts 101°
2026-05-08 16:18 42.45891 18.13509 33920 ft 474 kts 101°
2026-05-08 16:19 42.45393 18.17919 33285 ft 474 kts 101°
2026-05-08 16:19 42.44896 18.22337 32583 ft 475 kts 101°
2026-05-08 16:19 42.44395 18.26756 31852 ft 477 kts 101°
2026-05-08 16:19 42.43884 18.31205 31109 ft 479 kts 101°
2026-05-08 16:20 42.43368 18.35670 30373 ft 481 kts 100°
2026-05-08 16:20 42.42851 18.40118 29312 ft 488 kts 100°
2026-05-08 16:20 42.42310 18.44744 28226 ft 494 kts 100°
2026-05-08 16:20 42.41578 18.49284 27251 ft 494 kts 109°
2026-05-08 16:21 42.40305 18.53588 26511 ft 490 kts 119°
2026-05-08 16:21 42.38591 18.57455 25901 ft 482 kts 128°
2026-05-08 16:21 42.36460 18.60906 25290 ft 475 kts 137°
2026-05-08 16:21 42.34044 18.63923 24639 ft 469 kts 141°
2026-05-08 16:22 42.31607 18.66867 23993 ft 466 kts 140°
2026-05-08 16:22 42.29201 18.69767 23339 ft 462 kts 141°
2026-05-08 16:22 42.26808 18.72650 22646 ft 458 kts 140°
2026-05-08 16:22 42.24442 18.75499 21985 ft 453 kts 140°
2026-05-08 16:23 42.22099 18.78322 21417 ft 447 kts 140°
2026-05-08 16:23 42.19793 18.81095 20840 ft 442 kts 140°
2026-05-08 16:23 42.17505 18.83839 20221 ft 437 kts 140°
2026-05-08 16:23 42.15242 18.86548 19615 ft 433 kts 140°
2026-05-08 16:24 42.12997 18.89233 19026 ft 429 kts 140°
2026-05-08 16:24 42.10800 18.91859 18488 ft 426 kts 140°
2026-05-08 16:24 42.08598 18.94492 17892 ft 422 kts 140°
2026-05-08 16:24 42.06415 18.97105 17303 ft 419 kts 140°
2026-05-08 16:25 42.04246 18.99699 16758 ft 415 kts 140°
2026-05-08 16:25 42.02066 19.02299 16244 ft 412 kts 140°
2026-05-08 16:25 41.99960 19.04808 15725 ft 408 kts 140°
2026-05-08 16:25 41.97839 19.07328 15183 ft 405 kts 140°
2026-05-08 16:26 41.95736 19.09825 14646 ft 402 kts 140°
2026-05-08 16:26 41.93654 19.12301 14115 ft 398 kts 140°
2026-05-08 16:26 41.91611 19.14731 13936 ft 384 kts 140°
2026-05-08 16:26 41.89649 19.17066 13817 ft 369 kts 141°
2026-05-08 16:27 41.87763 19.19304 13683 ft 355 kts 141°
2026-05-08 16:27 41.85944 19.21457 13550 ft 342 kts 141°
2026-05-08 16:27 41.84191 19.23526 13414 ft 329 kts 141°
2026-05-08 16:27 41.82501 19.25521 13275 ft 318 kts 141°
2026-05-08 16:28 41.80857 19.27461 12939 ft 315 kts 141°
2026-05-08 16:28 41.79217 19.29392 12617 ft 310 kts 141°
2026-05-08 16:28 41.77616 19.31316 12246 ft 309 kts 137°
2026-05-08 16:28 41.76211 19.33491 11797 ft 306 kts 132°
2026-05-08 16:29 41.74857 19.35667 11056 ft 302 kts 133°
2026-05-08 16:29 41.73535 19.37783 10368 ft 298 kts 133°
2026-05-08 16:29 41.72198 19.39916 9703 ft 292 kts 133°
2026-05-08 16:29 41.70909 19.41971 9073 ft 287 kts 133°
2026-05-08 16:30 41.69613 19.44032 8635 ft 289 kts 133°
2026-05-08 16:30 41.68345 19.46049 8325 ft 286 kts 132°
2026-05-08 16:30 41.67067 19.48085 7956 ft 285 kts 132°
2026-05-08 16:30 41.65798 19.50104 7623 ft 283 kts 132°
2026-05-08 16:31 41.64664 19.52235 7242 ft 281 kts 119°
2026-05-08 16:31 41.64027 19.54691 6553 ft 280 kts 101°
2026-05-08 16:31 41.63979 19.57285 5844 ft 279 kts 85°
2026-05-08 16:31 41.64187 19.59849 5202 ft 274 kts 86°
2026-05-08 16:32 41.64378 19.62290 4971 ft 253 kts 86°
2026-05-08 16:32 41.64552 19.64573 4846 ft 244 kts 86°
2026-05-08 16:32 41.64529 19.66797 4714 ft 237 kts 110°
2026-05-08 16:32 41.63678 19.68539 4605 ft 220 kts 142°
2026-05-08 16:33 41.62295 19.69317 4186 ft 219 kts 173°
2026-05-08 16:33 41.60777 19.69503 3805 ft 218 kts 174°
2026-05-08 16:33 41.59262 19.69692 3415 ft 220 kts 174°
2026-05-08 16:33 41.57739 19.69889 3079 ft 219 kts 173°
2026-05-08 16:34 41.56243 19.70087 2768 ft 213 kts 173°
2026-05-08 16:34 41.54831 19.70275 2511 ft 196 kts 173°
2026-05-08 16:34 41.53509 19.70452 2238 ft 187 kts 173°
2026-05-08 16:34 41.52251 19.70620 1989 ft 176 kts 173°
2026-05-08 16:35 41.51080 19.70776 1787 ft 161 kts 173°
2026-05-08 16:35 41.50002 19.70920 1563 ft 152 kts 174°
2026-05-08 16:35 41.48967 19.71058 1362 ft 148 kts 174°
2026-05-08 16:35 41.47953 19.71194 1174 ft 146 kts 174°
2026-05-08 16:36 41.46949 19.71328 989 ft 144 kts 174°
2026-05-08 16:36 41.45956 19.71460 798 ft 143 kts 175°
2026-05-08 16:36 41.44967 19.71588 587 ft 142 kts 174°
2026-05-08 16:36 41.43995 19.71720 421 ft 140 kts 174°
2026-05-08 16:37 41.43016 19.71850 237 ft 142 kts 174°
2026-05-08 16:37 41.42059 19.71977 125 ft 126 kts 172°
2026-05-08 16:37 41.41342 19.72075 125 ft 79 kts 174°
2026-05-08 16:37 41.40922 19.72133 133 ft 50 kts 174°
2026-05-08 16:38 41.40623 19.72172 134 ft 39 kts 174°
2026-05-08 16:38 41.40377 19.72206 132 ft 32 kts 174°
2026-05-08 16:38 41.40260 19.72204 133 ft 9 kts 224°
2026-05-08 16:38 41.40246 19.72128 133 ft 8 kts 264°
2026-05-08 16:39 41.40242 19.72061 133 ft 8 kts 263°
2026-05-08 16:39 41.40244 19.71978 133 ft 11 kts 292°
2026-05-08 16:39 41.40302 19.71906 133 ft 12 kts 323°
2026-05-08 16:39 41.40382 19.71833 132 ft 15 kts 325°
2026-05-08 16:40 41.40468 19.71797 132 ft 12 kts 354°
2026-05-08 16:40 41.40539 19.71788 132 ft 9 kts 354°
2026-05-08 16:40 41.40594 19.71781 132 ft 8 kts 354°
2026-05-08 16:40 41.40671 19.71770 132 ft 15 kts 354°
2026-05-08 16:41 41.40795 19.71752 132 ft 20 kts 351°
2026-05-08 16:41 41.40948 19.71716 127 ft 24 kts 352°
2026-05-08 16:41 41.41125 19.71691 128 ft 26 kts 354°
2026-05-08 16:42 41.41447 19.71648 128 ft 23 kts 354°
2026-05-08 16:42 41.41609 19.71626 124 ft 24 kts 354°
2026-05-08 16:42 41.41734 19.71609 121 ft 9 kts 354°
2026-05-08 16:42 41.41788 19.71603 123 ft 7 kts 355°
2026-05-08 16:43 41.41807 19.71600 124 ft 0 kts 354°
2026-05-08 16:45 41.41839 19.71596 123 ft 8 kts 354°
2026-05-08 16:45 41.41922 19.71585 120 ft 15 kts 354°
2026-05-08 16:45 41.42032 19.71570 120 ft 17 kts 354°
2026-05-08 16:45 41.42131 19.71556 118 ft 9 kts 351°
2026-05-08 16:46 41.42145 19.71524 119 ft 3 kts 271°
2026-05-08 16:46 41.42143 19.71490 121 ft 2 kts 265°
2026-05-08 16:46 41.42143 19.71489 121 ft 0 kts 265°